Regional Weather Roundup
Issued by NWS

Home | Current Version | Previous Version | Text Only | Print | Product List | Glossary On
Versions: 1 2 3 4 5 6 7 8 9 10 11 12 13 14 15 16 17 18 19 20 21 22 23 24 25 26 27 28 29 30 31 32 33 34 35 36 37 38 39 40 41 42 43 44 45 46 47 48 49 50
000
ASUS43 KDMX 010610
RWRIA

WEATHER ROUNDUP FOR IOWA
NATIONAL WEATHER SERVICE DES MOINES IA
100 AM CDT THU SEP 01 2016

NOTE: "FAIR" INDICATES FEW OR NO CLOUDS BELOW 12,000 FEET WITH NO
SIGNIFICANT WEATHER AND/OR OBSTRUCTIONS TO VISIBILITY.

* - THESE STATIONS ARE NOT NWS STATIONS...THUS NOT UNDER NWS
QUALITY CONTROL.  THEY ALSO DO NOT REPORT WEATHER SUCH
AS PRECIPITATION OR FOG.

IAZ001>003-012>014-020>022-031>034-043>046-010700-
   NORTHWEST IOWA

CITY           SKY/WX    TMP DP  RH WIND       PRES   REMARKS
CARROLL *        N/A     57  55  94 NW3       30.20S
CHEROKEE *       N/A     59  59 100 CALM      30.22S FOG
DENISON *        N/A     57  55  94 CALM      30.19S
LE MARS *        N/A     59  57  94 CALM      30.22S
ORANGE CITY *    N/A     64  59  82 CALM      30.22S
SHELDON *        N/A     55  55 100 CALM      30.21S
SIOUX CITY       N/A     62  59  90 CALM      30.21R
6HR MIN TEMP:  61; 6HR MAX TEMP:  79;

SPENCER          N/A     55  54  96 CALM      30.22S
6HR MIN TEMP:  55; 6HR MAX TEMP:  75;

STORM LAKE *     N/A     61  57  88 NE3       30.22S
$$

IAZ055>058-069>071-079>083-090>094-010700-
   SOUTHWEST IOWA

CITY           SKY/WX    TMP DP  RH WIND       PRES   REMARKS
ATLANTIC *       N/A     59  57  94 CALM      30.19S
AUDUBON *        N/A     57  54  88 CALM      30.21S
CLARINDA *       N/A     61  61 100 MISG        N/A
COUNCIL BLFS *   N/A     63  61  94 N6        30.20R
CRESTON *        N/A     61  59  94 NE5       30.20R
HARLAN  *        N/A     61  59  94 CALM      30.23S
LAMONI           N/A     60  59  96 N6        30.17R
6HR MIN TEMP:  60; 6HR MAX TEMP:  72;

RED OAK *        N/A     61  61 100 CALM      30.19R
SHENANDOAH *     N/A     61  59  94 CALM      30.19R
$$

IAZ047>049-059>061-072>074-084-010700-
   CENTRAL IOWA

CITY           SKY/WX    TMP DP  RH WIND       PRES   REMARKS
AMES             N/A     58  58 100 N5        30.18F
6HR MIN TEMP:  58; 6HR MAX TEMP:  75;

ANKENY *         N/A    N/A N/A N/A MISG        N/A
BOONE *          N/A     61  57  88 N8        30.18F
CHARITON *       N/A     59  57  94 N6        30.17R
DES MOINES       N/A     67  57  70 NE6       30.17R
6HR MIN TEMP:  67; 6HR MAX TEMP:  77;

GRINNELL*        N/A     58  55  88 N6        30.18S
KNOXVILLE *      N/A     61  57  88 N3        30.16S
MARSHALLTOWN     N/A     58  56  93 N7        30.17S
6HR MIN TEMP:  58; 6HR MAX TEMP:  73;

NEWTON *         N/A     61  57  88 N6        30.17S
PELLA *          N/A     59  57  92 CALM      30.18S
PERRY *          N/A     60  59  97 CALM      30.19S
$$

IAZ004>006-015-016-023>025-035-036-010700-
   NORTH CENTRAL IOWA

CITY           SKY/WX    TMP DP  RH WIND       PRES   REMARKS
ALGONA *         N/A     61  57  88 CALM      30.21S
ESTHERVILLE      N/A     55  55 100 W5        30.21F
6HR MIN TEMP:  55; 6HR MAX TEMP:  73;

FORT DODGE *     N/A     57  52  82 CALM      30.21S
MASON CITY       N/A     56  54  93 N3        30.22S
6HR MIN TEMP:  54; 6HR MAX TEMP:  72;

FOREST CITY *    N/A     54  54 100 CALM      30.21S
WEBSTER CITY *   N/A     57  57 100 N3        30.18S
IOWA FALLS *     N/A     58  54  85 CALM      30.20F
$$

IAZ007>011-017>019-026>030-037>042-050>054-066-010700-
   NORTHEAST IOWA

CITY           SKY/WX    TMP DP  RH WIND       PRES   REMARKS
CEDAR RAPIDS     N/A     59  57  93 N5        30.15F
6HR MIN TEMP:  59; 6HR MAX TEMP:  73;

CHARLES CITY *   N/A     57  55  94 NE6       30.21S
CLINTON *        N/A     59  57  93 E5        30.16R
DECORAH *        N/A     57  57 100 CALM      30.19S
DUBUQUE          N/A     63  57  81 N5        30.17R
6HR MIN TEMP:  59; 6HR MAX TEMP:  72;

MONTICELLO *     N/A     59  57  94 CALM      30.16S
OELWEIN *        N/A     57  55  94 N5        30.19S
WATERLOO         N/A     56  53  90 NW5       30.18R
6HR MIN TEMP:  55; 6HR MAX TEMP:  73;

$$

IAZ064-065-067-068-078-010700-
   EAST CENTRAL IOWA

CITY           SKY/WX    TMP DP  RH WIND       PRES   REMARKS
DAVENPORT        N/A     57  55  93 NE5       30.15R
6HR MIN TEMP:  57; 6HR MAX TEMP:  72;

IOWA CITY        N/A     64  57  78 N7        30.17R
6HR MIN TEMP:  64; 6HR MAX TEMP:  75;

MT. PLEASANT *   N/A     61  61  99 N6        30.15R
MUSCATINE *      N/A     63  57  82 CALM      30.15R
QUAD CITIES      N/A     61  57  87 CALM      30.14R
6HR MIN TEMP:  60; 6HR MAX TEMP:  76;

$$

IAZ062-063-075>077-085>089-095>099-010700-
   SOUTHEAST IOWA

CITY           SKY/WX    TMP DP  RH WIND       PRES   REMARKS
BURLINGTON       N/A     62  59  90 N6        30.13S
6HR MIN TEMP:  62; 6HR MAX TEMP:  75;

FAIRFIELD *      N/A     59  57  94 N7        30.15R
FORT MADISON *   N/A     59  57  94 CALM      30.14S
KEOKUK *         N/A     63  61  94 N5        30.12S
OSKALOOSA *      N/A     57  55  94 N5        30.17S
OTTUMWA          N/A     61  56  83 N7        30.16R
6HR MIN TEMP:  61; 6HR MAX TEMP:  72;

$$

ABBREVIATIONS USED IN REMARKS
   TC - TEMPERATURES IN CELSIUS
  WCI - WIND CHILL INDEX
   HX - HEAT INDEX
  VSB - VISIBILITY
$$




USA.gov is the U.S. government's official web portal to all federal, state and local government web resources and services.